Kerrville, TX

5:07 PM CDT on September 19, 2017 (GMT -0500)
Kerrville Municipal-Schreiner

Weather History for KERV - October, 2012

Change the Weather History Date:

Friday, October 12, 2012

  Actual Average (KHDO) Record (KHDO)
Temperature  
Mean Temperature 76 °F -  
Max Temperature 82 °F 80 °F 97 °F (2015)
Min Temperature 71 °F 57 °F 55 °F (2016)
Cooling Degree Days 12    
Growing Degree Days 26 (Base 50)    
Moisture  
Dew Point 66 °F    
Average Humidity 74    
Maximum Humidity 88    
Minimum Humidity 51    
Precipitation  
Precipitation 0.00 in - - ()
Sea Level Pressure  
Sea Level Pressure 30.14 in    
Wind  
Wind Speed 11 mph (SSE)    
Max Wind Speed 18 mph    
Max Gust Speed 23 mph    
Visibility 10 miles    
Events      
Averages and records for this station are not official NWS values.
T = Trace of Precipitation, MM = Missing Value Source: NWS Daily Summary

Daily Weather History Graph

Daily Weather History Graph

Search for Another Location

Airport or City:

Trip Planner

Search our weather history database for the weather conditions in past years. The results will help you decide how hot, cold, wet, or windy it might be!

Date:

Astronomy

Oct. 12, 2012 Rise Set
Actual Time 7:36 AM CDT 7:08 PM CDT
Civil Twilight 7:12 AM CDT 7:32 PM CDT
Nautical Twilight 6:44 AM CDT 8:00 PM CDT
Astronomical Twilight 6:17 AM CDT 8:27 PM CDT
Moon 4:33 AM CDT (10/12) 5:09 PM CDT (10/12)
Length of Visible Light 12h 19m
Length of Day
11h 31m
Waning Crescent, 10% of the Moon is Illuminated
Oct 12
Waning Crescent
Oct 15
New
Oct 21
First Quarter
Oct 29
Full
Nov 6
Last Quarter

Hourly Weather History & Observations

Time (CDT) Temp. Heat Index Dew Point Humidity Pressure Visibility Wind Dir Wind Speed Gust Speed Precip Events Conditions
12:35 AM 71.6 °F - 66.2 °F 83% 30.15 in 10.0 mi SSE 10.4 mph - N/A   Scattered Clouds
12:55 AM 71.6 °F - 66.2 °F 83% 30.15 in 10.0 mi SSE 12.7 mph 16.1 mph N/A   Mostly Cloudy
1:15 AM 71.6 °F - 66.2 °F 83% 30.15 in 10.0 mi SSE 11.5 mph - N/A   Mostly Cloudy
1:35 AM 71.6 °F - 66.2 °F 83% 30.15 in 10.0 mi SSE 11.5 mph - N/A   Scattered Clouds
1:55 AM 71.6 °F - 66.2 °F 83% 30.15 in 10.0 mi SSE 9.2 mph - N/A   Scattered Clouds
2:15 AM 71.6 °F - 66.2 °F 83% 30.15 in 10.0 mi SSE 11.5 mph 16.1 mph N/A   Mostly Cloudy
2:35 AM 71.6 °F - 66.2 °F 83% 30.15 in 10.0 mi SSE 13.8 mph - N/A   Mostly Cloudy
2:55 AM 71.6 °F - 66.2 °F 83% 30.15 in 10.0 mi SSE 12.7 mph 16.1 mph N/A   Mostly Cloudy
3:15 AM 71.6 °F - 66.2 °F 83% 30.15 in 10.0 mi SSE 11.5 mph - N/A   Overcast
3:55 AM 71.6 °F - 66.2 °F 83% 30.15 in 10.0 mi SSE 11.5 mph 17.3 mph N/A   Overcast
4:15 AM 71.6 °F - 66.2 °F 83% 30.14 in 10.0 mi SSE 12.7 mph 16.1 mph N/A   Overcast
4:35 AM 71.6 °F - 66.2 °F 83% 30.14 in 10.0 mi SSE 11.5 mph - N/A   Overcast
5:15 AM 71.6 °F - 66.2 °F 83% 30.14 in 10.0 mi SSE 11.5 mph - N/A   Overcast
5:35 AM 71.6 °F - 66.2 °F 83% 30.14 in 10.0 mi SSE 11.5 mph - N/A   Overcast
5:55 AM 71.6 °F - 66.2 °F 83% 30.15 in 10.0 mi SSE 8.1 mph - N/A   Overcast
6:15 AM 71.6 °F - 68.0 °F 88% 30.15 in 10.0 mi SE 8.1 mph - N/A   Overcast
6:35 AM 71.6 °F - 68.0 °F 88% 30.15 in 10.0 mi SSE 8.1 mph - N/A   Overcast
6:55 AM 71.6 °F - 68.0 °F 88% 30.16 in 10.0 mi SSE 8.1 mph - N/A   Overcast
7:15 AM 71.6 °F - 68.0 °F 88% 30.16 in 10.0 mi SSE 6.9 mph - N/A   Overcast
7:35 AM 71.6 °F - 68.0 °F 88% 30.16 in 10.0 mi SSE 8.1 mph - N/A   Overcast
7:55 AM 71.6 °F - 68.0 °F 88% 30.17 in 10.0 mi SSE 8.1 mph - N/A   Overcast
8:15 AM 71.6 °F - 68.0 °F 88% 30.17 in 10.0 mi SSE 8.1 mph - N/A   Overcast
8:35 AM 71.6 °F - 68.0 °F 88% 30.17 in 10.0 mi SSE 8.1 mph - N/A   Overcast
9:15 AM 71.6 °F - 68.0 °F 88% 30.19 in 10.0 mi SSE 9.2 mph - N/A   Overcast
9:35 AM 71.6 °F - 68.0 °F 88% 30.19 in 10.0 mi South 10.4 mph - N/A   Overcast
9:55 AM 73.4 °F - 68.0 °F 83% 30.19 in 10.0 mi SSE 10.4 mph - N/A   Overcast
10:15 AM 73.4 °F - 68.0 °F 83% 30.20 in 10.0 mi SSE 13.8 mph 19.6 mph N/A   Mostly Cloudy
10:35 AM 77.0 °F - 68.0 °F 74% 30.19 in 10.0 mi South 13.8 mph 20.7 mph N/A   Mostly Cloudy
10:55 AM 77.0 °F - 68.0 °F 74% 30.20 in 10.0 mi SSE 13.8 mph 18.4 mph N/A   Overcast
11:15 AM 77.0 °F - 68.0 °F 74% 30.20 in 10.0 mi SSE 12.7 mph - N/A   Mostly Cloudy
11:35 AM 77.0 °F - 66.2 °F 69% 30.20 in 10.0 mi South 13.8 mph 18.4 mph N/A   Mostly Cloudy
12:15 PM 78.8 °F - 66.2 °F 65% 30.19 in 10.0 mi South 11.5 mph - N/A   Scattered Clouds
12:35 PM 80.6 °F 82.7 °F 66.2 °F 61% 30.19 in 10.0 mi South 13.8 mph 19.6 mph N/A   Scattered Clouds
12:55 PM 80.6 °F 82.7 °F 66.2 °F 61% 30.18 in 10.0 mi SSE 12.7 mph 16.1 mph N/A   Scattered Clouds
1:35 PM 80.6 °F 82.3 °F 64.4 °F 58% 30.16 in 10.0 mi South 11.5 mph 20.7 mph N/A   Scattered Clouds
2:55 PM 80.6 °F 82.3 °F 64.4 °F 58% 30.12 in 10.0 mi SSE 12.7 mph - N/A   Scattered Clouds
3:35 PM 82.4 °F 83.9 °F 64.4 °F 54% 30.11 in 10.0 mi SSE 10.4 mph - N/A   Scattered Clouds
3:55 PM 82.4 °F 83.4 °F 62.6 °F 51% 30.10 in 10.0 mi SSE 15.0 mph 19.6 mph N/A   Scattered Clouds
4:15 PM 82.4 °F 83.9 °F 64.4 °F 54% 30.10 in 10.0 mi SE 13.8 mph 20.7 mph N/A   Scattered Clouds
4:35 PM 82.4 °F 83.9 °F 64.4 °F 54% 30.09 in 10.0 mi SE 12.7 mph - N/A   Mostly Cloudy
4:55 PM 82.4 °F 83.9 °F 64.4 °F 54% 30.09 in 10.0 mi SSE 12.7 mph - N/A   Scattered Clouds
5:15 PM 80.6 °F 82.3 °F 64.4 °F 58% 30.08 in 10.0 mi SE 13.8 mph 20.7 mph N/A   Scattered Clouds
5:35 PM 80.6 °F 82.3 °F 64.4 °F 58% 30.08 in 10.0 mi SSE 10.4 mph 20.7 mph N/A   Scattered Clouds
5:55 PM 80.6 °F 82.3 °F 64.4 °F 58% 30.08 in 10.0 mi SSE 12.7 mph 19.6 mph N/A   Scattered Clouds
6:15 PM 80.6 °F 82.7 °F 66.2 °F 61% 30.08 in 10.0 mi SE 12.7 mph - N/A   Scattered Clouds
6:35 PM 78.8 °F - 64.4 °F 61% 30.08 in 10.0 mi SSE 11.5 mph - N/A   Scattered Clouds
6:55 PM 78.8 °F - 66.2 °F 65% 30.09 in 10.0 mi SE 6.9 mph - N/A   Scattered Clouds
7:15 PM 78.8 °F - 64.4 °F 61% 30.08 in 10.0 mi SE 10.4 mph - N/A   Mostly Cloudy
7:55 PM 78.8 °F - 66.2 °F 65% 30.09 in 10.0 mi ESE 11.5 mph 16.1 mph N/A   Mostly Cloudy
8:15 PM 77.0 °F - 66.2 °F 69% 30.09 in 10.0 mi ESE 8.1 mph - N/A   Mostly Cloudy
8:35 PM 77.0 °F - 64.4 °F 65% 30.10 in 10.0 mi ESE 8.1 mph - N/A   Mostly Cloudy
8:55 PM 77.0 °F - 64.4 °F 65% 30.10 in 10.0 mi ESE 8.1 mph - N/A   Mostly Cloudy
9:15 PM 77.0 °F - 64.4 °F 65% 30.10 in 10.0 mi SE 9.2 mph - N/A   Overcast
9:35 PM 77.0 °F - 64.4 °F 65% 30.10 in 10.0 mi ESE 9.2 mph - N/A   Mostly Cloudy
9:55 PM 77.0 °F - 66.2 °F 69% 30.11 in 10.0 mi SE 10.4 mph - N/A   Mostly Cloudy
10:15 PM 77.0 °F - 68.0 °F 74% 30.12 in 10.0 mi SE 13.8 mph 17.3 mph N/A   Overcast
10:55 PM 77.0 °F - 69.8 °F 78% 30.12 in 10.0 mi SSE 15.0 mph - N/A   Overcast
11:15 PM 77.0 °F - 69.8 °F 78% 30.12 in 10.0 mi SE 18.4 mph 23.0 mph N/A   Overcast
11:35 PM 77.0 °F - 69.8 °F 78% 30.13 in 10.0 mi SE 16.1 mph 21.9 mph N/A   Overcast
11:55 PM 77.0 °F - 69.8 °F 78% 30.13 in 10.0 mi SSE 16.1 mph 19.6 mph N/A   Overcast